Simultaneous Nadir Overpasses (SNOs) Predictions

Prediction of SNOs between GOES-17 and AQUA Satellite Orbit:

Table of predicted SNOs for the next 14.0 days since TLE Epoch: 4/2/2022
Index Date Time (GOES-17) GOES-17 Lat,Lon AQUA Lat,Lon Distance(km) Time Diff (sec)
1 04/02/2022 10:28:43 -0.03,-137.20 -0.88,-133.32 442.65 80
2 04/02/2022 22:52:45 0.03,-137.20 -0.22,-138.50 146.62 80
3 04/04/2022 22:37:44 0.03,-137.19 0.41,-135.49 193.59 80
4 04/05/2022 11:01:37 -0.03,-137.19 0.67,-140.64 391.46 80
5 04/07/2022 10:49:15 -0.03,-137.17 0.07,-137.62 51.90 80
6 04/09/2022 10:34:13 -0.02,-137.14 -0.56,-134.62 287.24 80
7 04/09/2022 22:55:35 0.02,-137.13 -0.52,-139.80 302.50 80
8 04/11/2022 22:45:52 0.01,-137.10 0.09,-136.78 36.34 80
9 04/13/2022 22:33:29 0.01,-137.07 0.72,-133.77 374.88 80
10 04/14/2022 10:54:41 -0.01,-137.06 0.39,-138.91 210.55 80
